Погода в Жерелеве

Россия / Калужская область     54°11′32″N   33°43′17″E
темп.,
°C
ветер,
м/с
пор.,
м/с
влажн.,
%
обл.,
%
осадки,
мм/ч
давл.,
гПа
погр.,
м
18 мая, вт
вт1800:00+18юв4138584 0.0 1004423
03:00+16юв399360 0.1 1004290
06:00+16вюв389881 3.1 1003259
09:00+20ю488244 3.1 1004654
12:00+22юв4668100 0.6 10041182
15:00+22ю4772100 2.1 1002726
18:00+21юв3966100 0.8 1001685
21:00+16ююв61392100 1.9 1001740
19 мая, ср
ср1900:00+13юв3109565 0.1 1003309
03:00+14вюв399615 0.1 1002354
06:00+14юв3996100 0.0 1003380
09:00+17ююв587674 0.0 1004831
12:00+19ююв577099 0.7 10041251
15:00+19ююв4671100 1.2 10051184
18:00+17ююв3686100 1.4 1005359
21:00+14ююв2293100 2.4 100523
20 мая, чт
чт2000:00+13ююз2597100 0.8 1004166
03:00+13ссз2698100 1.6 1002243
06:00+13св2797100 1.2 1001489
09:00+13в3595100 1.8 999477
12:00+14вюв3493100 1.6 998408
15:00+11зюз71196100 4.4 1001806
18:00+10зюз61293100 0.3 1004917
21:00+10зюз51094100 0.3 1007663
21 мая, пт
пт2100:00+9з41094100 0.1 1008661
03:00+9з41192100 0.2 1009745
06:00+8зюз38958 0.0 1011351
09:00+13зсз35695 0.0 1013821
12:00+16зсз3451100 0.0 10141585
15:00+18зсз3345100 0.0 10141914
18:00+16сз235892 0.0 1015794
21:00+11ссз2279100 0.0 101614
22 мая, сб
сб2200:00+9ссз1279100 0.0 101710
03:00+8с22870 0.0 101731
06:00+9ссв23860 0.0 101780
09:00+15всв23620 0.0 1017668
12:00+19в11470 0.0 10161543
15:00+20ююз11425 0.0 10162058
18:00+19вюв22523 0.0 10151270
21:00+13вюв3677100 0.0 101592